When you browse on this site, cookies collect data to enhance your experience and personalize the content and advertising you see.
Visit our Privacy Policy to learn more. By continuing to use the site, you agree to this use of cookies and data.
  • In Sweden
  • List of Countries
  • For 7 days
  • Water Temperature
  • Satellite Maps
  • Weather Map
  • Weather Widgets
  • user-avatar
    Login

    Hourly Weather Collierville

    Today, 24 May, Friday

    Time Temperature Precipitation Wind Pressure Humidity
    00:00 +25°C° 0 mm 2 mps 754 mmHg 83%
    01:00 +24°C° 0 mm 2 mps 754 mmHg 84%
    02:00 +24°C° 0 mm 2 mps 754 mmHg 85%
    03:00 +24°C° 0 mm 2 mps 754 mmHg 85%
    04:00 +24°C° 0 mm 2 mps 754 mmHg 86%
    05:00 +24°C° 0 mm 2 mps 755 mmHg 86%
    06:00 +24°C° 0 mm 2 mps 755 mmHg 86%
    07:00 +26°C° 0.2 mm 2 mps 755 mmHg 80%
    08:00 +28°C° 0.2 mm 2 mps 756 mmHg 75%
    09:00 +30°C° 0.2 mm 3 mps 756 mmHg 69%
    10:00 +31°C° 0.1 mm 3 mps 756 mmHg 63%
    11:00 +33°C° 0.1 mm 3 mps 755 mmHg 57%
    12:00 +34°C° 0.1 mm 3 mps 755 mmHg 51%
    13:00 +34°C° 0 mm 3 mps 755 mmHg 53%
    14:00 +34°C° 0 mm 3 mps 754 mmHg 54%
    15:00 +34°C° 0 mm 3 mps 753 mmHg 55%
    16:00 +33°C° 0 mm 3 mps 753 mmHg 59%
    17:00 +31°C° 0 mm 2 mps 753 mmHg 63%
    18:00 +31°C° 0 mm 2 mps 752 mmHg 67%
    19:00 +29°C° 0 mm 2 mps 753 mmHg 69%
    20:00 +28°C° 0 mm 2 mps 753 mmHg 71%
    21:00 +27°C° 0 mm 2 mps 753 mmHg 73%
    22:00 +26°C° 0 mm 2 mps 753 mmHg 74%
    23:00 +26°C° 0 mm 2 mps 753 mmHg 75%

    Tomorrow, 25 May, Saturday

    Time Temperature Precipitation Wind Pressure Humidity
    00:00 +25°C° 0 mm 2 mps 754 mmHg 76%
    01:00 +24°C° 0 mm 2 mps 753 mmHg 78%
    02:00 +24°C° 0 mm 2 mps 753 mmHg 79%
    03:00 +23°C° 0 mm 2 mps 753 mmHg 80%
    04:00 +23°C° 0 mm 2 mps 753 mmHg 81%
    05:00 +24°C° 0 mm 3 mps 754 mmHg 82%
    06:00 +24°C° 0 mm 3 mps 754 mmHg 82%
    07:00 +26°C° 0 mm 3 mps 754 mmHg 77%
    08:00 +28°C° 0 mm 3 mps 755 mmHg 71%
    09:00 +30°C° 0 mm 3 mps 755 mmHg 65%
    10:00 +32°C° 0 mm 4 mps 755 mmHg 60%
    11:00 +33°C° 0 mm 4 mps 755 mmHg 56%
    12:00 +34°C° 0 mm 4 mps 755 mmHg 51%
    13:00 +34°C° 0 mm 4 mps 754 mmHg 51%
    14:00 +34°C° 0 mm 4 mps 754 mmHg 50%
    15:00 +35°C° 0 mm 4 mps 753 mmHg 50%
    16:00 +33°C° 0 mm 3 mps 753 mmHg 55%
    17:00 +31°C° 0 mm 3 mps 753 mmHg 59%
    18:00 +30°C° 0 mm 2 mps 753 mmHg 64%
    19:00 +29°C° 0 mm 2 mps 753 mmHg 65%
    20:00 +28°C° 0 mm 2 mps 753 mmHg 66%
    21:00 +26°C° 0 mm 2 mps 754 mmHg 68%
    22:00 +26°C° 0 mm 2 mps 753 mmHg 69%
    23:00 +26°C° 0 mm 2 mps 753 mmHg 70%

    Day after tomorrow, 26 May, Sunday

    Time Temperature Precipitation Wind Pressure Humidity
    00:00 +25°C° 0 mm 2 mps 753 mmHg 71%
    01:00 +25°C° 0 mm 2 mps 753 mmHg 72%
    02:00 +24°C° 0 mm 2 mps 753 mmHg 72%
    03:00 +24°C° 0 mm 2 mps 753 mmHg 72%
    04:00 +24°C° 0 mm 2 mps 753 mmHg 74%
    05:00 +24°C° 0 mm 2 mps 754 mmHg 75%
    06:00 +24°C° 0 mm 2 mps 754 mmHg 77%
    07:00 +26°C° 0 mm 3 mps 754 mmHg 72%
    08:00 +28°C° 0 mm 3 mps 755 mmHg 68%
    09:00 +30°C° 0 mm 3 mps 755 mmHg 64%
    10:00 +31°C° 0 mm 3 mps 755 mmHg 57%
    11:00 +34°C° 0 mm 4 mps 755 mmHg 51%
    12:00 +35°C° 0 mm 4 mps 755 mmHg 45%
    13:00 +35°C° 0 mm 4 mps 754 mmHg 46%
    14:00 +35°C° 0 mm 4 mps 754 mmHg 46%
    15:00 +35°C° 0 mm 4 mps 753 mmHg 47%
    16:00 +34°C° 0 mm 4 mps 753 mmHg 52%
    17:00 +33°C° 0 mm 3 mps 752 mmHg 57%
    18:00 +31°C° 0 mm 3 mps 752 mmHg 62%
    19:00 +30°C° 0 mm 3 mps 752 mmHg 64%
    20:00 +28°C° 0 mm 2 mps 752 mmHg 67%
    21:00 +27°C° 0 mm 2 mps 752 mmHg 69%
    22:00 +26°C° 0 mm 2 mps 752 mmHg 71%
    23:00 +26°C° 0 mm 2 mps 752 mmHg 72%

    27 May, Monday

    Time Temperature Precipitation Wind Pressure Humidity
    00:00 +26°C° 0 mm 2 mps 752 mmHg 73%
    01:00 +25°C° 0 mm 2 mps 751 mmHg 74%
    02:00 +25°C° 0 mm 1 mps 751 mmHg 74%
    03:00 +25°C° 0 mm 1 mps 751 mmHg 74%
    04:00 +25°C° 0 mm 1 mps 752 mmHg 76%
    05:00 +25°C° 0 mm 2 mps 752 mmHg 78%
    06:00 +25°C° 0 mm 2 mps 752 mmHg 80%
    07:00 +27°C° 0 mm 2 mps 752 mmHg 75%
    08:00 +29°C° 0 mm 2 mps 752 mmHg 70%
    09:00 +31°C° 0 mm 2 mps 753 mmHg 64%
    10:00 +33°C° 0 mm 3 mps 752 mmHg 59%
    11:00 +34°C° 0 mm 4 mps 752 mmHg 54%
    12:00 +35°C° 0 mm 5 mps 751 mmHg 49%
    13:00 +35°C° 0 mm 5 mps 750 mmHg 49%
    14:00 +35°C° 0 mm 5 mps 750 mmHg 48%
    15:00 +35°C° 0 mm 5 mps 749 mmHg 48%
    16:00 +34°C° 0 mm 5 mps 749 mmHg 52%
    17:00 +33°C° 0 mm 4 mps 749 mmHg 56%
    18:00 +30°C° 0 mm 4 mps 748 mmHg 60%
    19:00 +29°C° 0 mm 4 mps 748 mmHg 61%
    20:00 +28°C° 0 mm 4 mps 749 mmHg 62%
    21:00 +27°C° 0 mm 4 mps 749 mmHg 63%
    22:00 +27°C° 0 mm 4 mps 749 mmHg 67%
    23:00 +26°C° 0 mm 4 mps 749 mmHg 71%

    28 May, Tuesday

    Time Temperature Precipitation Wind Pressure Humidity
    00:00 +25°C° 0 mm 4 mps 748 mmHg 76%
    01:00 +25°C° 0 mm 4 mps 748 mmHg 78%
    02:00 +25°C° 0 mm 3 mps 748 mmHg 80%
    03:00 +25°C° 0 mm 3 mps 748 mmHg 82%
    04:00 +25°C° 0 mm 4 mps 748 mmHg 84%
    05:00 +25°C° 0 mm 4 mps 749 mmHg 85%
    06:00 +25°C° 0 mm 4 mps 749 mmHg 87%
    07:00 +27°C° 0 mm 4 mps 749 mmHg 82%
    08:00 +28°C° 0 mm 5 mps 749 mmHg 76%
    09:00 +30°C° 0 mm 6 mps 749 mmHg 71%
    10:00 +32°C° 0 mm 6 mps 749 mmHg 66%
    11:00 +33°C° 0 mm 6 mps 749 mmHg 61%
    12:00 +34°C° 0 mm 7 mps 749 mmHg 57%
    13:00 +34°C° 0 mm 6 mps 748 mmHg 55%
    14:00 +34°C° 0 mm 6 mps 748 mmHg 52%
    15:00 +35°C° 0 mm 6 mps 747 mmHg 50%
    16:00 +33°C° 0 mm 5 mps 747 mmHg 54%
    17:00 +32°C° 0 mm 5 mps 747 mmHg 58%
    18:00 +30°C° 0 mm 4 mps 746 mmHg 62%
    19:00 +29°C° 0 mm 4 mps 746 mmHg 63%
    20:00 +28°C° 0 mm 4 mps 746 mmHg 64%
    21:00 +27°C° 0 mm 3 mps 746 mmHg 66%
    22:00 +27°C° 0 mm 4 mps 746 mmHg 66%
    23:00 +27°C° 0 mm 4 mps 746 mmHg 67%

    29 May, Wednesday

    Time Temperature Precipitation Wind Pressure Humidity
    00:00 +27°C° 0 mm 5 mps 746 mmHg 67%
    01:00 +27°C° 0 mm 5 mps 746 mmHg 67%
    02:00 +26°C° 0 mm 6 mps 746 mmHg 68%
    03:00 +26°C° 0 mm 6 mps 747 mmHg 68%
    04:00 +24°C° 0 mm 6 mps 747 mmHg 73%
    05:00 +24°C° 0 mm 6 mps 747 mmHg 77%
    06:00 +23°C° 0 mm 6 mps 747 mmHg 82%
    07:00 +26°C° 0 mm 7 mps 748 mmHg 78%
    08:00 +27°C° 0 mm 7 mps 748 mmHg 75%
    09:00 +28°C° 0 mm 8 mps 748 mmHg 71%
    10:00 +29°C° 0.2 mm 7 mps 748 mmHg 70%
    11:00 +29°C° 0.2 mm 7 mps 748 mmHg 69%
    12:00 +30°C° 0.2 mm 6 mps 748 mmHg 68%
    13:00 +30°C° 0.5 mm 6 mps 747 mmHg 69%
    14:00 +30°C° 0.5 mm 6 mps 747 mmHg 70%
    15:00 +30°C° 0.5 mm 5 mps 747 mmHg 71%
    16:00 +29°C° 0.1 mm 5 mps 747 mmHg 73%
    17:00 +29°C° 0.1 mm 5 mps 747 mmHg 75%
    18:00 +28°C° 0.1 mm 4 mps 747 mmHg 77%
    19:00 +28°C° 0 mm 4 mps 748 mmHg 79%
    20:00 +27°C° 0 mm 4 mps 748 mmHg 81%
    21:00 +26°C° 0 mm 3 mps 748 mmHg 83%
    22:00 +25°C° 0.2 mm 3 mps 749 mmHg 86%
    23:00 +25°C° 0.2 mm 3 mps 749 mmHg 88%
    Show more